• In Hungary
  • List of Countries
  • For 7 days
  • Water Temperature
  • Satellite Maps
  • Weather Map
  • News
  • Weather Widgets
  • user-avatar
    Login

    Hourly Weather Novyy Krupec

    Today, 24 September, Monday

    Time Temperature Precipitation Wind Pressure Humidity
    00:00 +8°C° 0 mm 3 mps 742 mmHg 84%
    01:00 +8°C° 0 mm 3 mps 741 mmHg 83%
    02:00 +8°C° 0 mm 3 mps 741 mmHg 83%
    03:00 +8°C° 0.1 mm 3 mps 741 mmHg 83%
    04:00 +8°C° 0.1 mm 3 mps 740 mmHg 83%
    05:00 +8°C° 0.1 mm 3 mps 740 mmHg 83%
    06:00 +8°C° 0.6 mm 4 mps 739 mmHg 85%
    07:00 +8°C° 0.6 mm 5 mps 739 mmHg 86%
    08:00 +8°C° 0.6 mm 5 mps 738 mmHg 88%
    09:00 +8°C° 1.1 mm 6 mps 737 mmHg 88%
    10:00 +8°C° 1.1 mm 7 mps 735 mmHg 88%
    11:00 +7°C° 1.1 mm 8 mps 734 mmHg 88%
    12:00 +9°C° 1.7 mm 8 mps 733 mmHg 89%
    13:00 +9°C° 1.7 mm 8 mps 732 mmHg 90%
    14:00 +10°C° 1.7 mm 8 mps 731 mmHg 91%
    15:00 +10°C° 0.4 mm 8 mps 730 mmHg 89%
    16:00 +10°C° 0.4 mm 8 mps 730 mmHg 88%
    17:00 +8°C° 0.4 mm 9 mps 730 mmHg 87%
    18:00 +9°C° 0.1 mm 8 mps 731 mmHg 87%
    19:00 +7°C° 0.1 mm 8 mps 731 mmHg 87%
    20:00 +6°C° 0.1 mm 7 mps 732 mmHg 87%
    21:00 +6°C° 0 mm 7 mps 733 mmHg 86%
    22:00 +6°C° 0 mm 7 mps 733 mmHg 86%
    23:00 +6°C° 0 mm 7 mps 734 mmHg 86%

    Tomorrow, 25 September, Tuesday

    Time Temperature Precipitation Wind Pressure Humidity
    00:00 +5°C° 0 mm 6 mps 735 mmHg 87%
    01:00 +5°C° 0 mm 6 mps 735 mmHg 88%
    02:00 +5°C° 0 mm 6 mps 736 mmHg 90%
    03:00 +5°C° 0.1 mm 6 mps 736 mmHg 89%
    04:00 +5°C° 0.1 mm 6 mps 737 mmHg 88%
    05:00 +5°C° 0.1 mm 6 mps 737 mmHg 88%
    06:00 +5°C° 0.1 mm 6 mps 738 mmHg 86%
    07:00 +5°C° 0.1 mm 6 mps 738 mmHg 85%
    08:00 +5°C° 0.1 mm 6 mps 739 mmHg 84%
    09:00 +5°C° 0 mm 6 mps 740 mmHg 82%
    10:00 +5°C° 0 mm 6 mps 740 mmHg 81%
    11:00 +5°C° 0 mm 6 mps 741 mmHg 79%
    12:00 +5°C° 0 mm 6 mps 741 mmHg 78%
    13:00 +5°C° 0 mm 6 mps 742 mmHg 77%
    14:00 +5°C° 0 mm 6 mps 742 mmHg 77%
    15:00 +6°C° 0 mm 5 mps 743 mmHg 76%
    16:00 +6°C° 0 mm 5 mps 744 mmHg 75%
    17:00 +7°C° 0 mm 4 mps 744 mmHg 74%
    18:00 +6°C° 0 mm 4 mps 745 mmHg 76%
    19:00 +5°C° 0 mm 4 mps 746 mmHg 77%
    20:00 +5°C° 0 mm 4 mps 746 mmHg 79%
    21:00 +4°C° 0 mm 4 mps 747 mmHg 79%
    22:00 +3°C° 0 mm 4 mps 747 mmHg 79%
    23:00 +3°C° 0 mm 4 mps 748 mmHg 79%

    Day after tomorrow, 26 September, Wednesday

    Time Temperature Precipitation Wind Pressure Humidity
    00:00 +1°C° 0 mm 4 mps 749 mmHg 79%
    01:00 +1°C° 0 mm 4 mps 749 mmHg 79%
    02:00 0°C° 0 mm 4 mps 750 mmHg 80%
    03:00 0°C° 0 mm 4 mps 750 mmHg 80%
    04:00 +1°C° 0 mm 3 mps 751 mmHg 80%
    05:00 +1°C° 0 mm 3 mps 752 mmHg 81%
    06:00 +1°C° 0 mm 3 mps 752 mmHg 77%
    07:00 +1°C° 0 mm 4 mps 753 mmHg 73%
    08:00 +3°C° 0 mm 4 mps 753 mmHg 70%
    09:00 +4°C° 0 mm 4 mps 753 mmHg 64%
    10:00 +6°C° 0 mm 4 mps 753 mmHg 58%
    11:00 +8°C° 0 mm 4 mps 754 mmHg 52%
    12:00 +8°C° 0 mm 4 mps 753 mmHg 53%
    13:00 +10°C° 0 mm 4 mps 753 mmHg 55%
    14:00 +10°C° 0 mm 4 mps 753 mmHg 56%
    15:00 +8°C° 0 mm 4 mps 752 mmHg 60%
    16:00 +9°C° 0 mm 3 mps 752 mmHg 64%
    17:00 +8°C° 0 mm 3 mps 751 mmHg 68%
    18:00 +8°C° 0 mm 3 mps 751 mmHg 67%
    19:00 +7°C° 0 mm 4 mps 751 mmHg 66%
    20:00 +6°C° 0 mm 4 mps 751 mmHg 65%
    21:00 +6°C° 0.1 mm 5 mps 750 mmHg 65%
    22:00 +6°C° 0.1 mm 5 mps 749 mmHg 66%
    23:00 +5°C° 0.1 mm 6 mps 749 mmHg 67%

    27 September, Thursday

    Time Temperature Precipitation Wind Pressure Humidity
    00:00 +5°C° 0.4 mm 7 mps 748 mmHg 70%
    01:00 +5°C° 0.4 mm 7 mps 747 mmHg 74%
    02:00 +4°C° 0.4 mm 8 mps 746 mmHg 78%
    03:00 +4°C° 1.2 mm 8 mps 745 mmHg 81%
    04:00 +4°C° 1.2 mm 8 mps 744 mmHg 84%
    05:00 +4°C° 1.2 mm 8 mps 743 mmHg 87%
    06:00 +5°C° 0.6 mm 8 mps 743 mmHg 88%
    07:00 +5°C° 0.6 mm 7 mps 743 mmHg 89%
    08:00 +5°C° 0.6 mm 7 mps 743 mmHg 90%
    09:00 +7°C° 0.2 mm 6 mps 743 mmHg 90%
    10:00 +7°C° 0.2 mm 6 mps 743 mmHg 90%
    11:00 +8°C° 0.2 mm 6 mps 743 mmHg 90%
    12:00 +8°C° 0.2 mm 6 mps 743 mmHg 90%
    13:00 +8°C° 0.2 mm 6 mps 743 mmHg 90%
    14:00 +8°C° 0.2 mm 5 mps 743 mmHg 90%
    15:00 +8°C° 0.2 mm 5 mps 743 mmHg 91%
    16:00 +8°C° 0.2 mm 5 mps 743 mmHg 92%
    17:00 +8°C° 0.2 mm 5 mps 742 mmHg 93%
    18:00 +9°C° 0.1 mm 5 mps 742 mmHg 93%
    19:00 +9°C° 0.1 mm 5 mps 742 mmHg 93%
    20:00 +10°C° 0.1 mm 5 mps 742 mmHg 94%
    21:00 +10°C° 0.4 mm 5 mps 742 mmHg 93%
    22:00 +11°C° 0.4 mm 6 mps 741 mmHg 92%
    23:00 +12°C° 0.4 mm 7 mps 741 mmHg 91%

    28 September, Friday

    Time Temperature Precipitation Wind Pressure Humidity
    00:00 +12°C° 0 mm 7 mps 741 mmHg 91%
    01:00 +12°C° 0 mm 7 mps 740 mmHg 91%
    02:00 +13°C° 0 mm 6 mps 740 mmHg 91%
    03:00 +11°C° 0 mm 7 mps 740 mmHg 91%
    04:00 +11°C° 0 mm 7 mps 739 mmHg 90%
    05:00 +11°C° 0 mm 8 mps 738 mmHg 89%
    06:00 +11°C° 0.1 mm 8 mps 738 mmHg 89%
    07:00 +12°C° 0.1 mm 8 mps 738 mmHg 88%
    08:00 +12°C° 0.1 mm 8 mps 738 mmHg 87%
    09:00 +11°C° 0.6 mm 8 mps 738 mmHg 86%
    10:00 +11°C° 0.6 mm 7 mps 739 mmHg 86%
    11:00 +11°C° 0.6 mm 7 mps 739 mmHg 85%
    12:00 +11°C° 0.1 mm 6 mps 740 mmHg 80%
    13:00 +11°C° 0.1 mm 6 mps 741 mmHg 75%
    14:00 +13°C° 0.1 mm 6 mps 741 mmHg 70%
    15:00 +12°C° 0.1 mm 5 mps 742 mmHg 72%
    16:00 +11°C° 0.1 mm 4 mps 742 mmHg 75%
    17:00 +11°C° 0.1 mm 3 mps 743 mmHg 77%
    18:00 +9°C° 0 mm 3 mps 744 mmHg 80%
    19:00 +8°C° 0 mm 3 mps 744 mmHg 83%
    20:00 +7°C° 0 mm 2 mps 745 mmHg 86%
    21:00 +7°C° 0 mm 2 mps 745 mmHg 87%
    22:00 +6°C° 0 mm 2 mps 745 mmHg 88%
    23:00 +6°C° 0 mm 2 mps 746 mmHg 89%

    29 September, Saturday

    Time Temperature Precipitation Wind Pressure Humidity
    00:00 +5°C° 0 mm 2 mps 746 mmHg 90%
    01:00 +5°C° 0 mm 2 mps 747 mmHg 90%
    02:00 +4°C° 0 mm 2 mps 747 mmHg 91%
    03:00 +5°C° 0 mm 1 mps 747 mmHg 90%
    04:00 +5°C° 0 mm 1 mps 747 mmHg 89%
    05:00 +5°C° 0 mm 1 mps 748 mmHg 87%
    06:00 +6°C° 0 mm 1 mps 748 mmHg 83%
    07:00 +7°C° 0 mm 1 mps 748 mmHg 78%
    08:00 +8°C° 0 mm 1 mps 749 mmHg 73%
    09:00 +9°C° 0 mm 1 mps 749 mmHg 67%
    10:00 +10°C° 0 mm 1 mps 749 mmHg 61%
    11:00 +11°C° 0 mm 1 mps 750 mmHg 55%
    12:00 +10°C° 0 mm 2 mps 750 mmHg 53%
    13:00 +12°C° 0 mm 2 mps 750 mmHg 50%
    14:00 +12°C° 0 mm 2 mps 750 mmHg 48%
    15:00 +10°C° 0 mm 2 mps 750 mmHg 53%
    16:00 +9°C° 0 mm 2 mps 750 mmHg 59%
    17:00 +8°C° 0 mm 2 mps 750 mmHg 64%
    18:00 +7°C° 0 mm 2 mps 751 mmHg 67%
    19:00 +6°C° 0 mm 2 mps 752 mmHg 70%
    20:00 +5°C° 0 mm 2 mps 752 mmHg 72%
    21:00 +4°C° 0 mm 2 mps 752 mmHg 73%
    22:00 +4°C° 0 mm 2 mps 753 mmHg 74%
    23:00 +3°C° 0 mm 2 mps 753 mmHg 74%
    Show more

    3.3.7123123